Regional Weather Roundup
Issued by NWS State College, PA

Home | Current Version | Previous Version | Graphics & Text | Print | Product List | Glossary On
Versions: 1 2 3 4 5 6 7 8 9 10 11 12 13 14 15 16 17 18 19 20 21 22 23 24 25 26 27 28 29 30 31 32 33 34 35 36 37 38 39 40 41 42 43 44 45 46 47 48 49 50
000
ASUS41 KCTP 050910
RWRCTP

REGIONAL WEATHER ROUNDUP
NATIONAL WEATHER SERVICE STATE COLLEGE PA
500 AM EDT THU MAY 05 2016

Note: "fair" indicates few or no clouds below 12,000 feet with no
significant weather and/or obstructions to visibility.

* = STATION THAT DOES NOT REPORT PRECIPITATION /E.G. RAIN...SNOW...ETC/
    THUNDER OR FOG.

PAZ002>004-007>009-013>016-020>023-029>032-051000-
WESTERN PENNSYLVANIA

CITY           SKY/WX    TMP DP  RH WIND       PRES   REMARKS
ERIE           CLOUDY    48  45  89 NE6       29.69R
MEADVILLE      CLOUDY    46  45  96 N3        29.67R
FRANKLIN*      CLOUDY    48  45  87 NE5       29.69S
NEW CASTLE     CLOUDY    47  45  93 CALM      29.68R
BEAVER COUNTY  NOT AVBL
BUTLER*        CLOUDY    48  45  87 CALM      29.68S
PITTSBURGH INT LGT RAIN  49  46  90 CALM      29.66R FOG
PITTSBURGH     CLOUDY    48  45  89 W6        29.65S
INDIANA*       CLOUDY    50  50 100 CALM      29.69S FOG
LATROBE        MOCLDY    48  48 100 CALM      29.67S
WASHINGTON CO* CLOUDY    46  45  93 CALM      29.66S
$$

PAZ004>006-010>012-017>019-024>028-033>037-041-042-045-046-049>053-051000-
CENTRAL PENNSYLVANIA

CITY           SKY/WX    TMP DP  RH WIND       PRES   REMARKS
BRADFORD       CLOUDY    46  43  89 CALM      29.69R
DUBOIS         CLOUDY   N/A N/A N/A E5        29.66S
CLEARFIELD     CLOUDY    50  47  89 E7        29.68S
JOHNSTOWN      LGT RAIN  47  42  83 CALM      29.64F
ALTOONA        CLOUDY    48  46  93 E7        29.67S FOG
STATE COLLEGE  CLOUDY    49  47  96 E3        29.69S FOG
WILLIAMSPORT   CLOUDY    50  46  86 E5        29.71R
SELINSGROVE    CLOUDY    50  47  89 CALM      29.71S
FT INDIANTOWN  CLOUDY    48  48 100 E2        29.71S
CAPITAL CITY   LGT RAIN  51  46  83 NE7       29.70F
HARRISBURG     DRIZZLE   50  47  89 E5        29.70S FOG
YORK           CLOUDY    49  47  93 NE5       29.69F FOG
$$

PAZ038>040-043-044-047-048-054-055-060>062-067>071-051000-
EASTERN PENNSYLVANIA

CITY           SKY/WX    TMP DP  RH WIND       PRES   REMARKS
SCRANTON       CLOUDY    47  43  86 E3        29.71S
MOUNT POCONO   CLOUDY    39  39 100 NE8       29.69S
ALLENTOWN      CLOUDY    48  43  82 NE7       29.71S
QUAKERTOWN*    CLOUDY    46  45  93 CALM      29.71S
READING        CLOUDY    49  45  86 NE5       29.70S
LANCASTER      CLOUDY    48  46  93 E5        29.70S
COATESVILLE    CLOUDY    46  46 100 CALM      29.71S
POTTSTOWN      CLOUDY    47  45  93 NE5       29.71S
BLUE BELL      CLOUDY    45  45 100 CALM      29.69S
DOYLESTOWN     CLOUDY    46  43  89 N6        29.69F
WILLOW GROVE   NOT AVBL
NORTH PHILA    CLOUDY    49  46  90 NE10      29.70F
PHILADELPHIA   CLOUDY    50  44  80 NE7       29.69F
$$




USA.gov is the U.S. government's official web portal to all federal, state and local government web resources and services.